SCP
0 0 0 0 0 0 0 0 0 0 0 0 0 0 0 0 0 0 0 0 0 0 0 0 0 0 0 0 0 0 0 0 0 0 0 0 0 0 0 0 0 0 0 0
0 0 0 0 0 0 0 0 0 0 0 0 0 0 0 0 0 0 0 0 0 0 0 0 0 0 0 0 0 0 0 0 0 0 0 0 0 0 0 0 0 0 0 0
0 0 0 0 0 0 0 0 0 0 0 0 0 0 0 0 0 0 0 0 0 0 0 0 0 0 0 0 0 0 0 0 0 0 0 0 0 0 0 0 0 0 0 0
0 0 0 0 0 0 0 0 0 0 0 0 0 0 0 0 0 0 0 0 0 0 0 0 0 0 0 0 0 0 0 0 0 0 0 0 0 0 0 0 0 0 0 0
0 0 0 0 0 0 0 0 0 0 0 0 0 0 0 0 0 0 0 0 0 0 0 0 0 0 0 0 0 0 0 0 0 0 0 0 0 0 0 0 0 0 0 0
0 0 0 0 0 0 0 0 0 0 0 0 0 0 0 0 0 0 0 0 0 0 0 0 0 0 0 0 0 0 0 0 0 0 0 0 0 0 0 0 0 0 0 0
0 0 0 0 0 0 0 0 0 0 0 0 0 0 0 0 0 0 0 0 0 0 0 0 0 0 0 0 0 0 0 0 0 0 0 0 0 0 0 0 0 0 0 0
0 0 0 0 0 0 0 0 0 0 0 0 0 0 0 0 0 0 0 0 0 0 0 0 0 0 0 0 0 0 0 0 0 0 0 0 0 0 0 0 0 0 0 0
0 0 0 0 0 0 0 0 0 0 0 0 0 0 0 0 0 0 0 0 0 0 0 0 0 0 0 0 0 0 0 0 0 0 0 0 0 0 0 0 0 0 0 0
0 0 0 0 0 0 0 0 0 0 0 0 0 0 0 0 0 0 0 0 0 0 0 0 0 0 0 0 0 0 0 0 0 0 0 0 0 0 0 0 0 0 0 0
0 0 0 0 0 0 0 0 0 0 0 0 0 0 0 0 0 0 0 0 0 0 0 0 0 0 0 0 0 0 0 0 0 0 0 0 0 0 0 0 0 0 0 0
0 0 0 0 0 0 0 0 0 0 0 0 0 0 0 0 0 0 0 0 0 0 0 0 0 0 0 0 0 0 0 0 0 0 0 0 0 0 0 0 0 0 0 0
0 0 0 0 0 0 0 0 0 0 0 0 0 0 0 0 0 0 0 0 0 0 0 0 0 0 0 0 0 0 0 0 0 0 0 0 0 0 0 0 0 0 0 0
0 0 0 0 0 0 0 0 0 0 0 0 0 0 0 0 0 0 0 0 0 0 0 0 0 0 0 0 0 0 0 0 0 0 0 0 0 0 0 0 0 0 0 0
0 0 0 0 0 0 0 0 0 0 0 0 0 0 0 0 0 0 0 0 0 0 0 0 0 0 0 0 0 0 0 0 0 0 0 0 0 0 0 0 0 0 0 0
0 0 0 0 0 0 0 0 0 0 0 0 0 0 0 0 0 0 0 0 0 0 0 0 0 0 0 0 0 0 0 0 0 0 0 0 0 0 0 0 0 0 0 0
0 0 0 0 0 0 0 0 0 0 0 0 0 0 0 0 0 0 0 0 0 0 0 0 0 0 0 0 0 0 0 0 0 0 0 0 0 0 0 0 0 0 0 0
0 0 0 0 0 0 0 0 0 0 0 0 0 0 0 0 0 0 0 0 0 0 0 0 0 0 0 0 0 0 0 0 0 0 0 0 0 0 0 0 0 0 0 0
0 0 0 0 0 0 0 0 0 0 0 0 0 0 0 0 0 0 0 0 0 0 0 0 0 0 0 0 0 0 0 0 0 0 0 0 0 0 0 0 0 0 0 0
0 0 0 0 0 0 0 0 0 0 0 0 0 0 0 0 0 0 0 0 0 0 0 0 0 0 0 0 0 0 0 0 0 0 0 0 0 0 0 0 0 0 0 0
0 0 0 0 0 0 0 0 0 0 0 0 0 0 0 0 0 0 0 0 0 0 0 0 0 0 0 0 0 0 0 0 0 0 0 0 0 0 0 0 0 0 0 0
0 0 0 0 0 0 0 0 0 0 0 0 0 0 0 0 0 0 0 0 0 0 0 0 0 0 0 0 0 0 0 0 0 0 0 0 0 0 0 0 0 0 0 0
0 0 0 0 0 0 0 0 0 0 0 0 0 0 0 0 0 0 0 0 0 0 0 0 0 0 0 0 0 0 0 0 0 0 0 0 0 0 0 0 0 0 0 0
0 0 0 0 0 0 0 0 0 0 0 0 0 0 0 0 0 0 0 0 0 0 0 0 0 0 0 0 0 0 0 0 0 0 0 0 0 0 0 0 0 0 0 0
0 0 0 0 0 0 0 0 0 0 0 0 0 0 0 0 0 0 0 0 0 0 0 0 0 0 0 0 0 0 0 0 0 0 0 0 0 0 0 0 0 0 0 0
0 0 0 0 0 0 0 0 0 0 0 0 0 0 0 0 0 0 0 0 0 0 0 0 0 0 0 0 0 0 0 0 0 0 0 0 0 0 0 0 0 0 0 0
0 0 0 0 0 0 0 0 0 0 0 0 0 0 0 0 0 0 0 0 0 0 0 0 0 0 0 0 0 0 0 0 0 0 0 0 0 0 0 0 0 0 0 0
Wind_Speed
3 2 4 5 8 10 10 10 10 10 10 13 8 6 5 5 4 4 5 5 5 4 5 4 4 3 3 3 3 3 3 3 4 5 5 5 5 5 5 6 6 6 6 7
2 2 3 5 9 12 12 10 11 10 14 10 7 4 5 5 4 5 6 6 5 5 5 4 4 3 3 3 3 2 3 4 4 4 5 5 5 5 5 6 6 6 6 7
3 1 1 8 11 13 9 9 10 14 12 3 4 5 6 6 6 6 7 6 6 5 5 4 4 3 4 4 3 2 3 4 4 4 5 5 6 5 5 5 5 6 7 7
2 2 8 8 4 8 9 9 9 8 6 4 6 6 6 5 5 6 6 6 5 5 4 4 3 3 2 2 2 3 3 4 4 4 5 5 5 5 6 5 5 6 7 7
4 4 8 7 2 5 6 7 7 9 8 5 3 3 5 4 4 5 5 5 4 4 3 3 3 2 2 2 2 3 4 4 4 5 5 5 5 6 5 5 6 6 6 6
4 4 7 5 2 2 4 5 4 5 6 4 1 1 6 4 3 4 3 3 2 2 2 2 2 2 1 3 3 4 5 5 5 5 5 6 6 6 5 5 6 6 6 6
5 5 8 5 2 3 4 6 3 3 4 4 5 6 4 3 3 3 3 3 3 2 2 2 2 1 2 3 4 5 4 4 5 5 5 5 5 5 5 6 6 6 7 6
4 5 8 2 4 5 5 3 2 2 2 3 3 3 3 2 3 3 4 4 3 3 3 3 2 1 2 4 4 4 4 4 4 4 4 4 4 5 5 5 6 6 6 7
7 7 3 3 4 3 1 2 3 2 2 1 1 2 3 3 3 3 3 4 3 3 3 3 3 1 2 4 4 4 4 4 5 5 4 4 4 5 5 4 5 6 6 6
3 6 4 3 3 2 2 2 3 2 1 1 1 2 2 3 3 3 3 3 3 3 3 4 4 3 3 4 4 3 4 5 4 4 5 4 4 4 4 4 5 6 6 6
5 5 4 3 3 3 3 1 1 1 1 1 1 2 2 3 3 3 3 4 3 3 3 4 4 4 4 4 3 4 4 4 4 4 4 4 4 4 4 4 5 6 5 5
7 6 4 5 3 2 2 2 2 1 2 2 1 2 3 3 3 3 3 3 4 4 3 4 4 4 4 3 3 3 4 4 3 3 4 4 4 5 6 7 10 10 9 8
6 4 3 4 3 1 2 2 1 0 1 2 2 1 2 3 3 3 3 4 4 4 4 4 4 4 5 4 3 3 3 4 3 4 4 4 4 5 6 7 8 9 9 9
3 2 3 3 3 2 1 0 1 1 1 1 2 2 2 2 3 3 4 4 4 3 4 4 4 5 5 4 3 3 3 4 4 3 3 4 4 4 4 5 7 6 7 9
3 3 4 3 2 1 1 2 2 2 2 2 2 2 2 2 3 4 4 4 4 4 4 4 5 5 5 4 4 4 4 3 3 3 3 4 4 4 4 5 5 6 6 7
3 1 1 0 1 1 2 2 1 1 2 2 3 3 3 2 2 3 3 3 3 4 5 5 5 6 5 4 4 4 3 5 5 4 3 3 3 4 4 4 5 5 5 6
1 1 1 1 1 1 1 0 0 1 2 2 3 3 3 3 3 4 4 4 3 3 4 4 5 6 5 4 4 3 3 4 6 4 3 3 3 3 4 4 4 4 5 6
1 2 1 1 1 0 1 1 1 1 2 2 2 2 3 3 3 4 4 5 5 5 5 5 5 6 5 5 4 3 3 3 3 3 3 3 3 3 3 4 4 5 5 6
2 1 1 1 1 1 0 1 1 1 2 2 2 2 2 2 3 3 4 4 5 5 6 6 9 7 5 6 6 3 3 3 3 3 3 5 5 4 3 4 4 4 5 5
3 3 3 3 2 2 1 1 1 1 2 2 2 2 3 3 3 4 4 3 3 4 5 7 6 5 5 5 7 3 3 3 3 3 3 3 4 4 4 4 4 4 4 4
4 4 4 4 3 3 2 1 1 1 2 2 2 2 2 3 3 3 3 4 5 5 6 8 5 4 5 5 7 3 3 3 3 3 3 4 4 4 4 4 4 4 4 4
3 3 3 3 3 3 3 2 2 2 2 3 3 2 3 3 4 4 3 3 5 9 6 4 4 6 8 8 4 3 3 3 3 3 3 4 4 4 4 4 4 4 4 4
3 3 3 3 3 2 3 3 3 2 2 2 3 3 3 3 3 3 4 4 4 8 6 4 7 10 10 6 3 3 4 4 4 4 4 4 4 4 4 4 4 4 4 3
3 3 3 3 3 3 4 4 3 3 3 3 3 3 3 3 3 3 3 7 10 10 5 7 11 11 10 4 3 3 4 4 4 4 4 4 4 4 4 4 4 4 4 4
3 3 3 3 3 2 2 3 3 3 3 3 3 4 3 2 2 4 4 5 8 9 5 7 11 11 6 4 4 4 4 4 4 4 4 4 4 4 4 4 4 4 3 3
2 2 2 2 1 1 2 2 2 2 3 3 4 4 3 3 3 4 4 5 6 8 6 5 5 6 4 4 4 4 4 5 5 5 5 4 5 4 4 4 5 4 3 3
2 2 2 2 2 2 2 2 2 3 3 3 4 4 4 4 4 4 5 5 4 4 4 4 4 4 4 4 4 4 4 4 4 4 4 4 4 4 4 4 4 3 3 2
Wind_Direction
253 232 172 200 202 191 200 203 207 232 238 259 268 270 276 276 279 282 281 278 271 270 276 279 280 279 270 275 281 284 288 286 281 283 284 287 290 292 289 286 286 283 282 283
261 248 225 240 224 210 220 223 234 256 264 257 266 273 277 276 267 270 270 267 271 276 277 273 268 274 281 281 282 282 280 279 283 287 292 294 295 295 294 291 291 291 289 287
225 232 327 256 221 202 204 209 202 229 244 265 273 267 260 259 254 256 262 268 269 269 267 266 263 259 262 270 282 283 281 284 289 293 294 294 296 298 295 295 294 292 289 288
163 130 231 242 203 192 209 229 218 238 260 258 254 267 264 247 241 260 268 273 272 271 276 283 281 279 277 287 289 289 291 294 296 296 293 294 294 292 294 293 291 292 293 290
169 209 266 284 238 180 194 252 223 233 259 276 300 327 291 257 242 254 265 274 272 271 275 289 292 294 304 304 302 297 292 291 292 293 296 299 295 292 292 295 296 294 294 295
172 196 234 252 245 180 126 270 242 218 246 255 107 291 276 294 300 294 303 307 307 317 332 325 315 338 335 303 304 295 290 290 293 292 293 295 294 297 299 298 296 299 300 298
193 219 256 264 237 137 174 247 295 229 239 213 205 226 264 309 324 329 334 331 338 347 342 318 323 356 334 311 298 294 302 303 299 297 296 296 300 303 305 305 306 306 304 302
174 209 249 218 137 180 225 286 303 289 273 231 251 284 306 318 326 341 348 343 349 354 341 342 352 2 329 310 308 317 319 315 310 306 306 310 310 309 309 309 309 310 309 308
193 216 249 188 201 238 256 285 292 292 288 239 268 298 315 319 323 328 338 338 344 350 344 343 352 355 311 310 325 329 327 318 318 321 318 315 312 310 313 313 311 312 312 311
242 259 262 267 274 273 268 263 287 288 271 252 260 286 307 312 321 327 332 335 337 346 342 330 334 334 311 316 327 329 324 319 320 322 323 325 322 315 314 313 310 309 310 311
242 266 295 278 249 256 274 280 293 314 293 258 242 296 297 302 311 318 326 330 337 333 319 316 325 328 328 329 336 332 324 318 321 322 322 323 319 313 310 302 299 302 301 303
232 229 217 248 249 236 245 271 268 274 312 312 255 284 302 307 310 319 325 334 337 329 321 317 323 323 327 333 336 330 324 324 322 319 317 319 322 322 320 313 317 316 313 309
245 264 249 261 286 276 255 278 291 275 247 300 319 305 304 309 319 329 329 331 324 318 318 319 321 324 327 331 331 322 312 313 313 313 316 318 319 318 320 325 326 327 328 326
256 264 271 280 283 298 287 323 48 40 5 325 320 335 334 321 322 328 320 316 319 326 326 322 326 324 324 326 327 321 315 314 316 311 312 315 315 314 314 318 324 327 332 337
277 252 242 267 293 326 61 80 70 30 4 356 356 348 343 330 322 318 321 331 339 344 338 336 333 327 329 329 327 322 318 316 314 311 311 311 312 315 318 320 319 321 328 333
307 306 236 263 324 2 57 68 69 351 342 342 347 346 337 327 323 330 341 348 350 340 334 335 330 325 327 328 327 325 322 323 323 317 314 317 320 323 324 323 321 324 326 326
295 307 343 340 321 329 351 17 140 287 328 335 334 340 352 358 358 355 350 347 341 330 330 330 324 325 328 330 328 320 320 323 325 324 322 321 319 318 317 318 320 321 319 324
265 245 226 209 227 263 4 25 32 359 330 319 334 357 1 359 348 338 337 340 346 346 342 334 327 327 332 333 327 318 318 316 319 318 318 319 314 311 314 317 318 316 315 322
8 20 42 55 76 118 79 8 349 344 339 352 7 4 352 346 337 332 337 346 348 339 333 332 333 339 335 331 330 320 319 316 317 318 315 316 319 319 318 316 313 313 315 319
31 36 53 54 51 62 63 18 22 20 7 22 32 22 5 351 344 339 337 333 322 305 309 320 325 327 326 322 325 317 316 314 311 312 314 313 313 315 315 313 313 313 318 322
34 44 52 52 42 37 42 55 75 34 8 20 29 5 343 334 336 334 334 328 323 323 322 327 332 326 322 319 322 319 318 317 317 316 313 312 312 312 314 316 317 317 320 321
29 42 46 50 53 39 24 32 49 42 26 18 12 1 353 343 338 332 316 297 308 324 329 323 321 321 323 323 323 325 324 323 319 315 312 311 310 311 315 317 317 316 317 320
30 39 42 43 47 37 25 29 34 38 28 6 352 343 334 321 319 320 318 321 320 325 329 323 325 329 331 333 334 332 327 323 319 315 311 309 308 307 309 311 311 311 315 319
33 36 35 35 44 46 31 14 17 19 13 355 346 335 327 327 326 318 300 315 326 328 328 328 335 338 340 345 340 334 326 322 319 315 312 310 308 307 307 307 308 311 316 318
34 36 37 36 35 27 13 7 13 12 9 2 351 344 337 324 306 307 311 313 322 330 329 333 340 343 345 337 333 326 322 319 316 313 311 312 311 311 311 311 311 311 313 314
27 27 21 14 2 348 345 355 358 348 350 349 343 340 337 331 321 315 315 319 323 331 334 329 330 335 335 332 329 325 322 320 321 321 316 313 312 310 310 312 312 310 309 308
26 25 23 18 9 2 354 353 350 341 338 333 326 328 331 330 329 329 327 327 328 330 328 327 329 331 331 331 329 326 324 320 318 316 315 313 312 310 310 309 308 309 310 309